Regional Weather Roundup
Issued by NWS Cleveland, OH

Home | Current Version | Previous Version | Graphics & Text | Print | Product List | Glossary On
Versions: 1 2 3 4 5 6 7 8 9 10 11 12 13 14 15 16 17 18 19 20 21 22 23 24 25 26 27 28 29 30 31 32 33 34 35 36 37 38 39 40 41 42 43 44 45 46 47 48 49 50
000
ASUS41 KCLE 210502
RWRCLE
OHIO REGIONAL WEATHER ROUNDUP
NATIONAL WEATHER SERVICE CLEVELAND, OH
1200 AM EST TUE FEB 21 2017

NOTE: "FAIR" INDICATES FEW OR NO CLOUDS BELOW 12,000 FEET WITH NO
SIGNIFICANT WEATHER AND/OR OBSTRUCTIONS TO VISIBILITY.

OHZ001>008-015>018-024>027-034-035-043-044-210600-
   NORTHWEST OHIO

CITY           SKY/WX    TMP DP  RH WIND       PRES   REMARKS
DEFIANCE       CLOUDY    38  33  82 E5        30.08F
FINDLAY        MOCLDY    45  35  68 CALM      30.07F
TOLEDO EXPRESS CLOUDY    37  33  85 E6        30.08F
TOLEDO EXEC    CLOUDY    38  33  82 NE3       30.10F
LIMA           CLOUDY    48  40  73 SE8       30.07F
$$

OHZ009>014-019>023-028>033-038-089-210600-
   NORTHEAST OHIO

CITY           SKY/WX    TMP DP  RH WIND       PRES   REMARKS
CLE-HOPKINS    CLOUDY    45  31  58 CALM      30.14F
CLE-LAKEFRONT  CLOUDY    37  33  85 N3        30.11F
CUY CO. ARPT   NOT AVBL
LORAIN-ELYRIA  PTCLDY    38  31  76 CALM      30.12F
ASHTABULA      CLOUDY    45  32  60 SE8       30.14F
AKRON-CANTON   CLOUDY    50  29  44 SE9       30.12F
WOOSTER        PTCLDY    42  35  76 CALM      30.11F
MANSFIELD      CLOUDY    51  38  60 SE8       30.11F
YOUNGSTOWN     CLOUDY    47  30  51 SE10      30.14F
$$

OHZ042-051>053-060>062-070>072-077>081-210600-
  SOUTHWEST OHIO

CITY           SKY/WX    TMP DP  RH WIND       PRES   REMARKS
CINC-COVINGTON CLOUDY    55  40  56 SE10      30.04F
CINC-LUNKEN    MOCLDY    45  43  93 CALM      30.07F
HAMILTON       MOCLDY    47  41  80 E5        30.06F
DAYTON         CLOUDY    49  42  77 SE9       30.07F
WRIGHT-PAT AFB CLOUDY    45  44  97 N3        30.07F
DAYTON GENERAL CLOUDY    55  40  56 SE8       30.05F
WILMINGTON     PTCLDY    49  40  71 SE7       30.07F
$$

OHZ036-037-039>041-045>050-054>059-063>069-073>076-082>088-210600-
  CENTRAL AND SOUTHEAST OHIO

CITY           SKY/WX    TMP DP  RH WIND       PRES   REMARKS
COLUMBUS       CLOUDY    53  39  59 E9        30.08F
OSU AIRPORT    CLOUDY    47  40  76 E5        30.09F
BOLTON FIELD   PTCLDY    48  42  79 E3        30.09F
RICKENBACK AFB PTCLDY    45  41  88 E3        30.08F
NEWARK         PTCLDY    41  37  86 CALM      30.10F
MARION         CLOUDY    47  36  65 E6        30.10F
LANCASTER      PTCLDY    44  40  85 CALM      30.09F
ZANESVILLE     PTCLDY    48  37  65 CALM      30.11F
NEW PHILLY     NOT AVBL
$$




USA.gov is the U.S. government's official web portal to all federal, state and local government web resources and services.